Location: Le Vaud
(46.4779°N, 6.2346°E)
Time: 05:53:02
(UTC+00:00)

Daily predictions for brighter satellites

Satellite Brightness Start Highest point End
(mag) Time Altitude Azimuth Time Altitude Azimuth Time Altitude Azimuth
USA 215 4.4 02:31:43 10° NE 02:35:33 38° NE 02:35:33 38° NE
SL-16 R/B 4.1 02:46:27 25° E 02:46:27 25° E 02:50:00 10° NE
NOSS 3-1 (A) 4.3 02:56:40 62° NNE 02:57:03 62° NE 03:05:29 10° SE
Cosmos 2333 Rocket 4.2 03:19:49 19° N 03:19:49 19° N 03:21:40 10° NNE
IDEFIX/ARIANE 42P 4.3 03:19:44 10° NNE 03:21:52 25° NNE 03:21:52 25° NNE
Cosmos 2251 Rocket 4.4 03:28:27 46° E 03:28:27 46° E 03:32:59 10° NNE
BREEZE M DEB (TANK) 4.4 03:12:04 10° WNW 03:36:54 79° SSW 03:42:12 10° SE
Cosmos 1535 Rocket 4.4 03:34:56 10° N 03:41:14 84° E 03:47:24 10° S
ATLAS CENTAUR R/B 2.8 03:46:18 38° NE 03:46:18 38° NE 03:49:03 10° NE
Cosmos 2237 Rocket 3.3 03:48:41 32° N 03:48:41 32° N 03:52:05 10° NNE
Lacrosse 5 2.5 03:47:38 53° NE 03:47:38 53° NE 03:52:26 10° ESE
NOSS 3-1 (C) 4.1 03:53:58 56° SW 03:53:58 56° SW 04:01:58 10° SSE
MSX 3.9 03:49:32 10° N 03:54:26 62° NNW 03:54:26 62° NNW
H-2A R/B 3.8 03:51:12 10° NNE 03:55:21 40° E 03:57:25 25° SSE
GEOS 3 Rocket 4.4 03:50:35 10° NE 03:55:44 49° ESE 03:57:21 37° S
BREEZE-M DEB (TANK) 3.9 03:54:29 50° WNW 03:56:06 62° NNW 04:00:27 10° ENE
Cosmos 2219 Rocket 4.1 03:58:45 16° NNW 03:58:45 16° NNW 04:00:51 10° N
ADEOS 3.7 03:51:54 10° NNE 03:56:19 64° N 03:56:19 64° N
BREEZE-M DEB (TANK) 4.0 03:58:30 71° ESE 03:58:30 71° ESE 04:06:03 10° ENE
CZ-2C R/B 2.5 03:53:39 10° NNE 03:58:53 79° ESE 03:59:16 73° SSE
Meteor 1-31 Rocket 4.0 03:56:17 10° NNE 03:59:24 40° ENE 03:59:24 40° ENE
CZ-4C R/B 3.1 04:02:10 35° NNW 04:02:10 35° NNW 04:07:22 10° NNE
Meteor 2-10 Rocket 3.4 04:03:59 82° NW 04:03:59 82° NW 04:09:03 10° N
Cosmos 1934 Rocket 4.0 04:09:54 10° NNW 04:16:01 55° W 04:22:10 10° SSW
NOSS 2-1 (E) 4.3 04:17:28 36° NNE 04:17:28 36° NNE 04:19:58 10° NE
Cosmos 1943 Rocket 2.3 04:13:11 16° NNW 04:17:40 73° ENE 04:23:10 10° SSE
ALOS 3.8 04:15:15 10° NNE 04:19:34 36° E 04:23:52 10° SSE
USA 215 4.0 04:14:45 10° NE 04:20:43 39° NNW 04:22:54 31° NW
CZ-4B R/B 4.1 04:18:19 10° NNE 04:22:39 81° ESE 04:24:21 37° S
COSMO-SKYMED 1 3.4 04:19:23 10° SSE 04:23:35 51° ENE 04:27:49 10° N
SL-16 R/B 2.3 04:28:21 49° W 04:29:08 53° WNW 04:34:43 10° NNE
Cosmos 2221 2.8 04:29:14 10° S 04:33:27 68° E 04:37:44 10° NNE
Cosmos 1605 Rocket 4.0 04:32:08 10° NNW 04:38:13 56° W 04:44:11 10° SSW
FENGYUN 3A 4.3 04:33:59 10° NNE 04:39:21 56° E 04:44:41 10° S
Cosmos 2369 Rocket 2.2 04:36:18 10° NNW 04:42:03 88° ENE 04:47:47 10° SSE
Aureole 2 Rocket 3.0 04:42:36 27° N 04:43:53 48° ENE 04:46:56 10° SE
Cosmos 614 Rocket 4.3 04:39:04 10° S 04:44:09 67° ESE 04:49:20 10° NNE
Cosmos 1603 4.0 04:39:40 10° SSW 04:45:20 68° ESE 04:51:00 10° NNE
SKYMED 3 4.5 04:43:17 10° SSE 04:47:38 90° NW 04:52:01 10° NNW
NOSS 3-1 (A) 4.5 04:44:10 26° WNW 04:47:59 41° WSW 04:55:55 10° S
Cosmos 1943 3.8 04:45:58 10° S 04:51:28 59° ESE 04:57:00 10° NNE
Meteor PRIRODA 3.5 04:47:45 10° N 04:51:28 78° WNW 04:54:56 11° SSW
Cosmos 1153 Rocket 4.4 04:45:38 10° NNW 04:51:44 67° W 04:57:48 10° S
Cosmos 2263 4.3 04:48:19 10° NNW 04:54:05 81° ENE 04:59:43 10° SSE
Meteor 2-3 Rocket 3.8 04:52:16 10° NNW 04:57:50 53° W 05:03:26 10° S
CZ-4B R/B 4.4 04:55:58 10° NNE 05:01:02 42° E 05:06:02 10° S
Cosmos 1656 Rocket 4.2 04:56:56 10° NNW 05:02:36 63° ENE 05:08:14 10° SE
IDEFIX/ARIANE 42P 4.4 05:01:08 10° NNW 05:02:42 13° NW 05:02:42 13° NW
Cosmos 1727 Rocket 4.0 04:59:18 10° SSW 05:05:24 59° WNW 05:11:31 10° N
Cosmos 1238 4.0 05:02:50 10° S 05:05:52 86° W 05:08:58 10° N
Cosmos 1484 Rocket 3.0 05:02:40 10° N 05:06:29 49° WNW 05:10:19 10° SSW
Cosmos 1633 2.6 05:02:49 10° N 05:06:29 80° E 05:10:07 10° SSE
Cosmos 2251 Rocket 4.5 05:08:58 24° W 05:10:25 27° NW 05:14:56 10° N
Cosmos 1805 Rocket 3.5 05:06:50 10° N 05:11:12 84° E 05:15:31 10° S
SKYMED 2 3.7 05:07:28 10° S 05:11:41 51° W 05:15:56 10° NNW
Cosmos 2173 Rocket 3.9 05:07:44 10° N 05:14:04 77° W 05:20:16 10° S
Sich 1 3.3 05:11:42 10° N 05:15:59 68° E 05:20:15 10° SSE
Cosmos 1500 Rocket 4.0 05:14:35 10° NNW 05:18:43 38° W 05:22:46 10° SSW
CZ-4B R/B 3.5 05:15:57 10° N 05:19:08 27° WNW 05:20:20 22° W
PSLV R/B 3.8 05:17:50 10° N 05:21:27 49° WNW 05:25:06 10° SSW
Meteor 2-2 Rocket 4.3 05:16:48 10° SSW 05:22:47 69° WNW 05:28:49 10° N
Cosmos 1238 Rocket 3.8 05:17:05 10° N 05:23:24 89° WSW 05:28:42 10° S
ATLAS 2AS CENTAUR R/B 4.2 05:16:27 10° NW 05:23:30 36° NNE 05:30:05 10° E
ATLAS CENTAUR R/B 3.1 05:22:30 17° WNW 05:24:00 20° NW 05:27:15 10° NNE
Okean O Rocket 1.9 05:19:50 10° NNE 05:24:13 70° ESE 05:28:33 10° S
PAYLOAD B 4.2 05:20:37 10° NNE 05:26:15 89° WNW 05:31:48 10° SSW
Cosmos 2100 Rocket 4.0 05:21:49 10° NNW 05:27:54 57° W 05:33:54 10° SSW
Lacrosse 5 2.5 05:26:51 16° WNW 05:30:21 38° SW 05:35:01 10° SSE
Cosmos 1743 Rocket 4.4 05:26:50 10° NNW 05:30:26 26° W 05:34:02 10° SW
H-2A R/B 3.7 05:27:07 10° NNW 05:30:37 24° WNW 05:34:00 11° WSW
STARLINK-1101 4.4 05:26:51 10° SW 05:30:44 49° SE 05:34:38 10° ENE
STARLINK-1128 4.3 05:26:58 10° SW 05:30:49 51° SE 05:34:41 10° ENE
STARLINK-1149 4.4 05:29:32 14° NW 05:31:06 21° N 05:33:17 10° ENE
Cosmos 2237 Rocket 4.1 05:30:40 10° NW 05:32:19 11° NNW 05:33:57 10° NNW
Cosmos 2084 4.1 05:28:44 10° SSW 05:33:10 62° SE 05:37:37 10° NE
GEOS 3 Rocket 4.2 05:28:46 10° NNE 05:33:41 40° NW 05:38:30 11° WSW
Meteor 1-31 Rocket 4.3 05:31:34 10° NNW 05:34:02 17° WNW 05:34:48 16° WNW
STARLINK-1113 4.2 05:31:23 10° SW 05:35:15 54° SE 05:39:10 10° ENE
STARLINK-1102 4.3 05:31:26 10° SW 05:35:22 54° SE 05:39:19 10° ENE
STARLINK-1118 2.3 05:33:40 16° WSW 05:35:37 85° SSE 05:38:11 10° ENE
CZ-2C R/B 4.0 05:33:10 10° NNW 05:36:27 17° WNW 05:38:39 13° W
STARLINK-1132 4.4 05:34:49 12° NW 05:36:44 23° N 05:39:03 10° ENE
STARLINK-1070 2.7 05:35:37 12° WSW 05:38:14 85° SE 05:41:10 10° ENE
STARLINK-1124 2.6 05:36:35 14° WSW 05:39:01 80° NNW 05:41:57 10° ENE
Cosmos 2061 Rocket 4.0 05:32:46 10° NNW 05:39:02 71° W 05:45:13 10° S
STARLINK-1150 4.4 05:37:17 12° NW 05:39:16 23° N 05:41:32 10° ENE
STARLINK-1066 2.7 05:36:41 12° WSW 05:39:19 87° SSE 05:42:16 10° ENE
ADEOS Rocket 3.2 05:33:20 10° SSE 05:39:31 83° WSW 05:46:30 10° NNW
STARLINK-1081 2.6 05:36:55 12° WSW 05:39:34 87° SSE 05:42:30 10° ENE
STARLINK-1119 4.1 05:35:44 10° SW 05:39:39 58° SE 05:43:35 10° ENE
STARLINK-1069 2.6 05:37:19 12° WSW 05:39:59 88° SSE 05:42:56 10° ENE
STARLINK-1111 4.1 05:36:08 10° SW 05:40:05 58° SE 05:44:03 10° ENE
STARLINK-1085 2.6 05:37:33 12° WSW 05:40:15 88° SSE 05:43:11 10° ENE
STARLINK-1086 2.6 05:37:46 12° WSW 05:40:28 88° SSE 05:43:24 10° ENE
STARLINK-1163 4.4 05:38:34 11° NW 05:40:39 23° N 05:42:58 10° ENE
STARLINK-1095 2.6 05:37:59 12° WSW 05:40:41 89° SSE 05:43:37 10° ENE
STARLINK-1077 2.6 05:38:12 12° WSW 05:40:55 89° SE 05:43:51 10° ENE
STARLINK-1075 2.6 05:38:25 11° WSW 05:41:08 89° SSE 05:44:04 10° ENE
STARLINK-1093 2.6 05:38:38 11° WSW 05:41:21 89° SW 05:44:17 10° ENE
STARLINK-1074 2.6 05:38:51 11° WSW 05:41:35 90° NNW 05:44:30 10° ENE
STARLINK-1087 2.6 05:39:05 11° WSW 05:41:49 89° N 05:44:45 10° ENE
STARLINK-1088 2.6 05:39:17 11° WSW 05:42:02 89° NW 05:44:58 10° ENE
STARLINK-1115 2.6 05:39:30 11° WSW 05:42:15 89° NW 05:45:11 10° ENE
STARLINK-1173 4.4 05:40:14 11° NW 05:42:21 23° N 05:44:38 10° ENE
STARLINK-1076 2.6 05:39:43 11° WSW 05:42:29 88° NNW 05:45:26 10° ENE
STARLINK-1092 2.6 05:39:56 11° WSW 05:42:42 88° NNW 05:45:38 10° ENE
STARLINK-1177 4.3 05:40:37 11° NW 05:42:44 23° N 05:45:01 10° ENE
STARLINK-1080 2.6 05:40:09 11° WSW 05:42:56 88° NNW 05:45:52 10° ENE
STARLINK-1090 2.6 05:40:22 11° WSW 05:43:09 87° NNW 05:46:06 10° ENE
STARLINK-1089 2.6 05:40:35 11° WSW 05:43:23 87° NW 05:46:19 10° ENE
STARLINK-1107 2.6 05:40:48 11° WSW 05:43:36 87° NNW 05:46:32 10° ENE
STARLINK-1109 2.6 05:40:59 11° WSW 05:43:48 86° NW 05:46:45 10° ENE
STARLINK-1167 4.3 05:41:41 11° NW 05:43:52 23° N 05:46:10 10° ENE
STARLINK-1091 2.6 05:41:14 11° WSW 05:44:04 86° NNW 05:47:00 10° ENE
STARLINK-1114 4.0 05:40:12 10° SW 05:44:08 63° SE 05:48:05 10° ENE
Cosmos 1459 Rocket 4.2 05:38:22 10° NNW 05:44:12 46° W 05:50:07 10° SSW
STARLINK-1072 2.6 05:41:27 11° WSW 05:44:17 86° NNW 05:47:14 10° ENE
STARLINK-1096 2.6 05:41:41 11° WSW 05:44:31 85° NNW 05:47:27 10° ENE
STARLINK-1073 4.0 05:40:45 10° SW 05:44:43 63° SE 05:48:43 10° ENE
STARLINK-1079 2.6 05:41:53 10° WSW 05:44:44 85° NNW 05:47:40 10° ENE
STARLINK-1116 2.6 05:42:06 10° WSW 05:44:58 85° NNW 05:47:54 10° ENE
STARLINK-1094 2.6 05:42:32 10° WSW 05:45:25 84° NNW 05:48:21 10° ENE
STARLINK-1117 2.6 05:42:44 10° WSW 05:45:38 84° NNW 05:48:34 10° ENE
STARLINK-1078 2.6 05:42:57 10° WSW 05:45:52 83° NNW 05:48:48 10° ENE
Cosmos 1151 Rocket 4.0 05:41:45 10° S 05:45:55 52° E 05:50:10 10° NNE
STARLINK-1108 2.6 05:43:10 10° WSW 05:46:04 83° NNW 05:49:01 10° ENE
STARLINK-1071 2.6 05:43:24 10° WSW 05:46:19 82° NNW 05:49:14 10° ENE
STARLINK-1110 2.6 05:43:37 10° WSW 05:46:32 82° NNW 05:49:29 10° ENE
STARLINK-1122 2.6 05:44:03 10° WSW 05:46:59 81° NNW 05:49:55 10° ENE
STARLINK-1126 2.6 05:44:17 10° WSW 05:47:12 81° NNW 05:50:08 10° ENE
STARLINK-1082 2.6 05:44:31 10° WSW 05:47:26 81° NNW 05:50:22 10° ENE
Cosmos 1328 Rocket 4.4 05:43:10 10° S 05:47:31 57° E 05:51:53 10° NNE
STARLINK-1100 2.6 05:44:43 10° WSW 05:47:39 80° NNW 05:50:35 10° ENE
STARLINK-1083 2.6 05:44:58 10° WSW 05:47:53 80° NNW 05:50:49 10° ENE
BREEZE M DEB (TANK) 3.8 05:44:47 12° WNW 05:47:58 81° NNE 05:58:34 10° ESE
TELKOM 3 3.9 05:46:25 14° WNW 05:47:59 32° N 05:49:57 10° ENE
STARLINK-1125 2.6 05:45:12 10° WSW 05:48:07 80° NNW 05:51:03 10° ENE
STARLINK-1130 (DARKSAT) 3.9 05:44:33 10° SW 05:48:29 67° SSE 05:52:28 10° ENE
STARLINK-1136 4.3 05:46:31 10° NW 05:48:55 24° NNE 05:51:17 10° ENE
STARLINK-1121 3.9 05:45:18 10° SW 05:49:18 67° SE 05:53:20 10° ENE
Shenzhou-11 Module 3.4 05:47:35 10° SW 05:49:52 26° SSE 05:52:10 10° ESE
CZ-4C R/B 4.2 05:48:06 10° NW 05:52:09 18° N 05:56:41 10° NE
Cosmos 1725 Rocket 4.0 05:46:29 10° NNW 05:52:42 71° W 05:58:56 10° S
STARLINK-1084 3.8 05:48:58 10° SW 05:52:57 72° SSE 05:56:56 10° ENE
Cosmos 1400 Rocket 2.8 05:49:05 10° SSW 05:53:05 74° WNW 05:57:11 10° N
STARLINK-1106 3.8 05:50:01 10° SW 05:54:01 73° SSE 05:58:04 10° ENE
Cosmos 1954 Rocket 4.0 05:49:23 10° SSW 05:54:41 72° WNW 06:00:02 10° NNE
Cosmos 1869 4.4 05:51:55 10° SW 05:55:12 24° WNW 05:58:29 10° NNW
Cosmos 2123 Rocket 4.0 05:49:49 10° SSW 05:56:07 72° W 06:02:26 10° N
Cosmos 407 Rocket 4.1 05:51:46 10° SW 05:56:42 37° WNW 06:01:37 10° N
ALOS 3.1 05:52:54 10° N 05:56:52 28° WNW 06:00:49 10° WSW
STARLINK-1112 3.7 05:54:46 10° SW 05:58:49 78° SE 06:02:52 10° ENE
COSMO-SKYMED 1 4.0 05:57:11 10° SW 06:00:03 17° W 06:02:56 10° NW
Cosmos 921 Rocket 4.0 05:56:53 10° NW 06:00:33 26° W 06:04:10 10° SSW
Cosmos 1140 Rocket 3.8 05:55:35 10° SW 06:00:36 46° WNW 06:05:41 10° NNE
STARLINK-1129 4.4 05:57:42 10° NW 06:00:36 29° NNE 06:03:30 10° ENE
Cosmos 1943 Rocket 3.5 05:57:12 10° WNW 06:00:46 18° W 06:04:19 10° SW
Cosmos 1802 Rocket 4.4 05:55:49 10° NNW 06:01:48 43° W 06:07:47 10° SSW
STARLINK-1134 4.4 05:59:36 10° NW 06:02:31 30° NNE 06:05:26 10° ENE
USA 215 4.2 05:56:57 10° ENE 06:02:50 37° N 06:08:43 10° NW
Cosmos 1606 3.7 06:00:05 10° S 06:03:48 53° E 06:07:31 10° NNE
STARLINK-1135 4.3 06:01:59 10° NW 06:04:55 30° NNE 06:07:50 10° ENE
Cosmos 1633 Rocket 3.1 06:02:07 10° NNW 06:06:25 60° W 06:10:43 10° S
